Time[GMT],salinity[psu](15m),sigma_t[kg/m^3](15m),conductivity[msiemens/cm](15m),pressure[decibars](15m),temperature[C](15m)
2018-07-20 14:40,31.989,24.485,35.747,15.30,10.70
2018-07-20 15:00,31.997,24.491,35.756,15.20,10.70
2018-07-20 15:20,31.988,24.491,35.708,15.38,10.65
2018-07-20 15:40,31.996,24.495,35.730,15.28,10.67
2018-07-20 16:00,31.993,24.497,35.708,15.24,10.65
2018-07-20 16:20,31.999,24.511,35.661,15.37,10.59
2018-07-20 16:40,32.012,24.547,35.545,15.39,10.44
2018-07-20 17:00,31.997,24.517,35.622,15.34,10.55
2018-07-20 17:20,31.972,24.442,35.884,15.36,10.87
2018-07-20 17:40,31.992,24.504,35.665,15.36,10.60
2018-07-20 18:00,32.022,24.549,35.585,15.28,10.47
2018-07-20 18:20,31.978,24.457,35.833,15.40,10.81
2018-07-20 18:40,31.992,24.490,35.735,15.22,10.68
2018-07-20 19:00,32.025,24.537,35.660,15.41,10.56
2018-07-20 19:20,31.962,24.436,35.866,15.33,10.86
2018-07-20 19:40,31.946,24.382,36.052,15.30,11.09
2018-07-20 20:00,31.953,24.394,36.030,15.27,11.06
2018-07-20 20:20,31.946,24.388,36.022,15.29,11.06
2018-07-20 20:40,31.968,24.427,35.938,15.27,10.94
2018-07-20 21:00,31.968,24.441,35.865,15.32,10.85
2018-07-20 21:20,32.012,24.488,35.844,15.37,10.78
2018-07-20 21:40,31.994,24.472,35.838,15.41,10.79
2018-07-20 22:00,31.998,24.499,35.720,15.27,10.66
2018-07-20 22:20,32.007,24.508,35.718,15.30,10.64
2018-07-20 22:40,32.000,24.507,35.688,15.31,10.62
2018-07-20 23:00,31.962,24.457,35.758,15.34,10.74
2018-07-20 23:20,31.972,24.451,35.839,15.27,10.82
2018-07-20 23:40,31.998,24.494,35.749,15.17,10.69
2018-07-21 00:00,31.994,24.493,35.735,15.32,10.68
2018-07-21 00:20,32.007,24.517,35.671,15.16,10.59
2018-07-21 00:40,32.020,24.543,35.605,15.19,10.50
2018-07-21 01:00,31.992,24.506,35.655,15.23,10.59
2018-07-21 01:20,31.997,24.477,35.823,15.40,10.77
2018-07-21 01:40,31.995,24.475,35.827,15.18,10.78
2018-07-21 02:00,31.994,24.473,35.831,15.36,10.79
2018-07-21 02:20,31.999,24.488,35.782,15.45,10.72
2018-07-21 02:40,32.002,24.496,35.755,15.22,10.69
2018-07-21 03:00,32.001,24.498,35.739,15.26,10.67
2018-07-21 03:20,32.000,24.495,35.747,15.34,10.68
2018-07-21 03:40,31.990,24.478,35.786,15.27,10.74
2018-07-21 04:00,31.992,24.485,35.758,15.37,10.71
2018-07-21 04:20,32.018,24.527,35.677,15.31,10.58
2018-07-21 04:40,32.007,24.518,35.669,15.33,10.59
2018-07-21 05:00,31.994,24.511,35.636,15.28,10.56
2018-07-21 05:20,32.018,24.543,35.592,15.33,10.49
2018-07-21 05:40,32.026,24.545,35.624,15.28,10.51
2018-07-21 06:00,32.004,24.512,35.683,15.29,10.61
2018-07-21 06:20,32.017,24.500,35.807,15.36,10.73
2018-07-21 06:40,31.961,24.447,35.802,15.33,10.79
2018-07-21 07:00,31.987,24.458,35.870,15.35,10.84
2018-07-21 07:20,31.992,24.483,35.773,15.40,10.72
2018-07-21 07:40,32.029,24.527,35.734,15.31,10.64
2018-07-21 08:00,31.879,24.331,35.982,15.30,11.09
2018-07-21 08:20,31.981,24.429,35.992,15.29,10.98
2018-07-21 08:40,31.994,24.473,35.831,15.37,10.79
2018-07-21 09:00,31.970,24.421,35.977,15.25,10.98
2018-07-21 09:20,31.954,24.398,36.016,15.22,11.04
2018-07-21 09:40,31.993,24.464,35.877,15.37,10.84
2018-07-21 10:00,31.996,24.479,35.812,15.33,10.76
2018-07-21 10:20,31.987,24.474,35.792,15.27,10.75
2018-07-21 10:40,31.999,24.488,35.780,15.35,10.72
2018-07-21 11:00,31.999,24.488,35.779,15.34,10.72
2018-07-21 11:20,31.975,24.436,35.927,15.19,10.92
2018-07-21 11:40,31.984,24.458,35.859,15.24,10.83
2018-07-21 12:00,32.010,24.518,35.681,15.29,10.60
2018-07-21 12:20,32.018,24.533,35.646,15.37,10.55
2018-07-21 12:40,32.019,24.534,35.641,15.40,10.54
2018-07-21 13:00,32.011,24.516,35.701,15.20,10.62
2018-07-21 13:20,31.997,24.463,35.900,15.25,10.86
2018-07-21 13:40,31.998,24.471,35.864,15.30,10.82
2018-07-21 14:00,32.006,24.495,35.781,15.18,10.72
2018-07-21 14:20,32.010,24.499,35.778,15.30,10.71
2018-07-21 14:40,32.006,24.497,35.769,15.23,10.70
2018-07-21 15:00,32.007,24.498,35.767,15.23,10.70
2018-07-21 15:20,31.984,24.470,35.800,15.28,10.76
2018-07-21 15:40,32.004,24.488,35.803,15.27,10.74
2018-07-21 16:00,31.997,24.473,35.844,15.18,10.80
2018-07-21 16:20,31.999,24.476,35.839,15.23,10.79
2018-07-21 16:40,32.013,24.500,35.789,15.26,10.72
2018-07-21 17:00,32.009,24.503,35.757,15.34,10.68
2018-07-21 17:20,32.025,24.533,35.681,15.30,10.58
2018-07-21 17:40,32.031,24.553,35.606,15.25,10.49
2018-07-21 18:00,32.030,24.550,35.617,15.29,10.50
2018-07-21 18:20,32.025,24.544,35.624,15.33,10.52
2018-07-21 18:40,32.027,24.543,35.637,15.35,10.53
2018-07-21 19:00,31.998,24.486,35.785,15.24,10.73
2018-07-21 19:20,31.992,24.445,35.965,15.30,10.94
2018-07-21 19:40,32.015,24.509,35.754,15.33,10.67
2018-07-21 20:00,32.012,24.502,35.774,15.29,10.70
2018-07-21 20:20,31.987,24.474,35.794,15.34,10.75
2018-07-21 20:40,31.948,24.382,36.068,15.34,11.11
2018-07-21 21:00,31.955,24.360,36.209,15.29,11.26
2018-07-21 21:20,31.943,24.345,36.223,15.28,11.29
2018-07-21 21:40,31.963,24.392,36.089,15.30,11.11
2018-07-21 22:00,31.937,24.339,36.228,15.33,11.30
2018-07-21 22:20,31.932,24.331,36.241,15.34,11.32
2018-07-21 22:40,31.986,24.437,35.972,15.25,10.96
2018-07-21 23:00,32.004,24.471,35.895,15.22,10.85
2018-07-21 23:20,32.017,24.497,35.824,15.33,10.75
2018-07-21 23:40,32.024,24.515,35.766,15.23,10.68
2018-07-22 00:00,32.040,24.555,35.640,15.25,10.52
2018-07-22 00:20,31.994,24.453,35.932,15.39,10.90
2018-07-22 00:40,32.028,24.499,35.873,15.23,10.79
2018-07-22 01:00,32.019,24.510,35.770,15.32,10.69
2018-07-22 01:20,32.042,24.548,35.690,15.33,10.57
2018-07-22 01:40,32.011,24.498,35.790,15.25,10.72
2018-07-22 02:00,32.023,24.484,35.919,15.23,10.85
2018-07-22 02:20,32.015,24.490,35.851,15.19,10.78
2018-07-22 02:40,32.012,24.490,35.833,15.29,10.77
2018-07-22 03:00,32.029,24.504,35.849,15.40,10.77
2018-07-22 03:20,32.013,24.505,35.763,15.19,10.69
2018-07-22 03:40,32.030,24.524,35.749,15.32,10.65
2018-07-22 04:00,32.022,24.516,35.754,15.25,10.67
2018-07-22 04:20,32.004,24.480,35.846,15.28,10.79
2018-07-22 04:40,32.009,24.488,35.830,15.21,10.77
2018-07-22 05:00,32.010,24.484,35.852,15.30,10.79
2018-07-22 05:20,32.015,24.484,35.877,15.32,10.81
2018-07-22 05:40,32.016,24.501,35.798,15.35,10.72
2018-07-22 06:00,32.017,24.500,35.807,15.29,10.73
2018-07-22 06:20,32.018,24.507,35.775,15.37,10.70
2018-07-22 06:40,32.022,24.514,35.762,15.31,10.68
2018-07-22 07:00,32.031,24.535,35.704,15.33,10.60
2018-07-22 07:20,32.037,24.544,35.684,15.29,10.57
2018-07-22 07:40,31.948,24.402,35.963,15.27,10.99
2018-07-22 08:00,32.099,24.530,36.065,15.26,10.93
2018-07-22 08:20,31.952,24.403,35.976,15.39,11.00
2018-07-22 08:40,32.050,24.513,35.909,15.36,10.81
2018-07-22 09:00,31.970,24.390,36.137,15.33,11.16
2018-07-22 09:20,31.973,24.403,36.082,15.30,11.10
2018-07-22 09:40,31.990,24.434,36.009,15.34,10.99
2018-07-22 10:00,31.973,24.410,36.049,15.41,11.06
2018-07-22 10:20,31.969,24.395,36.100,15.23,11.12
2018-07-22 10:40,31.963,24.387,36.113,15.35,11.14
2018-07-22 11:00,31.974,24.409,36.060,15.23,11.07
2018-07-22 11:20,31.946,24.357,36.181,15.31,11.24
2018-07-22 11:40,32.011,24.486,35.850,15.35,10.79
2018-07-22 12:00,32.001,24.484,35.810,15.25,10.75
2018-07-22 12:20,31.994,24.459,35.902,15.24,10.87
2018-07-22 12:40,32.007,24.483,35.849,15.29,10.79
2018-07-22 13:00,32.020,24.513,35.756,15.43,10.67
2018-07-22 13:20,32.022,24.526,35.701,15.31,10.61
2018-07-22 13:40,32.015,24.496,35.820,15.28,10.75
2018-07-22 14:00,32.021,24.469,35.988,15.26,10.93
2018-07-22 14:20,32.009,24.441,36.067,15.29,11.04
2018-07-22 14:40,32.004,24.438,36.062,15.29,11.04
2018-07-22 15:00,31.996,24.443,35.995,15.34,10.97
2018-07-22 15:20,32.023,24.477,35.955,15.22,10.89
2018-07-22 15:40,32.009,24.471,35.918,15.23,10.87
2018-07-22 16:00,32.014,24.479,35.903,15.21,10.84
2018-07-22 16:20,32.012,24.477,35.903,15.28,10.85
2018-07-22 16:40,32.010,24.471,35.925,15.31,10.87
2018-07-22 17:00,32.007,24.467,35.931,15.32,10.88
2018-07-22 17:20,32.012,24.479,35.892,15.23,10.83
2018-07-22 17:40,32.018,24.495,35.841,15.26,10.77
2018-07-22 18:00,32.022,24.502,35.825,15.33,10.75
2018-07-22 18:20,32.024,24.519,35.746,15.31,10.66
2018-07-22 18:40,32.025,24.522,35.737,15.26,10.64
2018-07-22 19:00,32.025,24.524,35.728,15.34,10.63
2018-07-22 19:20,32.029,24.533,35.702,15.20,10.60
2018-07-22 19:40,32.030,24.532,35.708,15.39,10.61
2018-07-22 20:00,32.029,24.520,35.763,15.28,10.67
2018-07-22 20:20,31.993,24.432,36.031,15.29,11.01
2018-07-22 20:40,31.991,24.445,35.961,15.27,10.94
2018-07-22 21:00,32.006,24.473,35.893,15.29,10.84
2018-07-22 21:20,32.079,24.521,36.014,15.34,10.90
2018-07-22 21:40,31.900,24.362,35.926,15.32,11.00
2018-07-22 22:00,31.993,24.414,36.124,15.24,11.12
2018-07-22 22:20,31.964,24.360,36.254,15.28,11.30
2018-07-22 22:40,31.956,24.346,36.284,15.32,11.34
2018-07-22 23:00,31.956,24.353,36.250,15.39,11.30
2018-07-22 23:20,31.950,24.345,36.257,15.34,11.32
2018-07-22 23:40,31.954,24.342,36.291,15.28,11.35
2018-07-23 00:00,31.995,24.400,36.205,15.27,11.21
2018-07-23 00:20,31.972,24.389,36.148,15.31,11.17
2018-07-23 00:40,31.991,24.423,36.067,15.18,11.06
2018-07-23 01:00,32.000,24.455,35.954,15.31,10.92
2018-07-23 01:20,32.024,24.516,35.763,15.31,10.67
2018-07-23 01:40,32.022,24.512,35.770,15.45,10.68
2018-07-23 02:00,32.014,24.494,35.823,15.13,10.75
2018-07-23 02:20,32.010,24.470,35.930,15.13,10.88
2018-07-23 02:40,31.976,24.411,36.054,15.14,11.06
2018-07-23 03:00,32.023,24.471,35.987,15.30,10.93
2018-07-23 03:20,32.000,24.437,36.042,15.37,11.02
2018-07-23 03:40,31.998,24.435,36.045,15.30,11.02
2018-07-23 04:00,31.995,24.436,36.027,15.31,11.01
2018-07-23 04:20,32.000,24.438,36.037,15.32,11.01
2018-07-23 04:40,32.002,24.449,35.991,15.40,10.96
2018-07-23 05:00,32.005,24.457,35.967,15.28,10.93
2018-07-23 05:20,32.004,24.456,35.968,15.54,10.93
2018-07-23 05:40,31.996,24.441,36.005,15.30,10.98
2018-07-23 06:00,32.007,24.463,35.944,15.18,10.90
2018-07-23 06:20,32.013,24.478,35.903,15.32,10.85
2018-07-23 06:40,32.010,24.475,35.901,15.45,10.85
2018-07-23 07:00,32.016,24.489,35.863,15.30,10.80
2018-07-23 07:20,32.019,24.500,35.823,15.19,10.75
2018-07-23 07:40,32.036,24.533,35.733,15.31,10.63
2018-07-23 08:00,32.005,24.474,35.882,15.41,10.83
2018-07-23 08:20,32.010,24.472,35.918,15.29,10.87
2018-07-23 08:40,32.007,24.465,35.937,15.39,10.89
2018-07-23 09:00,31.977,24.407,36.081,15.25,11.09
2018-07-23 09:20,32.013,24.475,35.913,15.27,10.86
2018-07-23 09:40,32.024,24.494,35.877,15.47,10.80
2018-07-23 10:00,32.009,24.467,35.937,15.31,10.89
2018-07-23 10:20,31.955,24.360,36.208,15.27,11.26
2018-07-23 10:40,31.963,24.379,36.154,15.55,11.19
2018-07-23 11:00,31.945,24.320,36.361,15.24,11.44
2018-07-23 11:20,31.932,24.310,36.347,15.06,11.44
2018-07-23 11:40,31.955,24.353,36.243,15.40,11.30
2018-07-23 12:00,32.005,24.430,36.103,15.49,11.08
2018-07-23 12:20,31.971,24.409,36.042,15.30,11.05
2018-07-23 12:40,31.962,24.379,36.151,15.48,11.18
2018-07-23 13:00,31.985,24.413,36.093,15.50,11.09
2018-07-23 13:20,31.996,24.442,36.000,15.33,10.98
2018-07-23 13:40,32.006,24.465,35.933,15.32,10.89
2018-07-23 14:00,32.004,24.462,35.934,15.16,10.89
2018-07-23 14:20,32.015,24.486,35.873,14.93,10.81
2018-07-23 14:40,32.014,24.477,35.909,15.09,10.85
2018-07-23 15:00,32.021,24.493,35.867,15.29,10.80
2018-07-23 15:20,32.004,24.456,35.969,15.39,10.93
2018-07-23 15:40,32.017,24.482,35.899,15.35,10.84
2018-07-23 16:00,31.996,24.438,36.018,15.26,11.00
2018-07-23 16:20,32.005,24.461,35.952,15.25,10.91
2018-07-23 16:40,32.018,24.486,35.886,15.19,10.82
2018-07-23 17:00,32.013,24.469,35.950,15.42,10.90
2018-07-23 17:20,32.007,24.458,35.971,15.49,10.93
2018-07-23 17:40,32.004,24.456,35.972,15.48,10.93
2018-07-23 18:00,32.019,24.483,35.907,15.38,10.84
2018-07-23 18:20,32.016,24.482,35.896,15.31,10.84
2018-07-23 18:40,32.016,24.487,35.870,15.60,10.80
2018-07-23 19:00,32.004,24.446,36.021,15.24,10.99
2018-07-23 19:20,32.013,24.471,35.938,15.50,10.89
2018-07-23 19:40,32.022,24.493,35.872,15.48,10.80
2018-07-23 20:00,32.027,24.509,35.816,15.48,10.73
2018-07-23 20:20,32.024,24.498,35.851,15.28,10.77
2018-07-23 20:40,32.015,24.500,35.804,15.44,10.73
2018-07-23 21:00,31.983,24.437,35.961,15.50,10.95
2018-07-23 21:20,32.031,24.496,35.897,15.45,10.82
2018-07-23 21:40,32.025,24.462,36.038,15.33,10.99
2018-07-23 22:00,32.022,24.489,35.891,15.29,10.82
2018-07-23 22:20,31.977,24.391,36.164,15.34,11.18
2018-07-23 22:40,32.026,24.476,35.976,15.37,10.91
2018-07-23 23:00,31.962,24.349,36.297,15.17,11.35
2018-07-23 23:20,31.994,24.408,36.159,15.33,11.16
2018-07-23 23:40,31.956,24.343,36.296,15.28,11.36
2018-07-24 00:00,31.975,24.384,36.188,15.33,11.21
2018-07-24 00:20,31.989,24.412,36.119,15.37,11.12
2018-07-24 00:40,32.015,24.468,35.962,15.66,10.91
2018-07-24 01:00,32.036,24.488,35.966,15.49,10.89
2018-07-24 01:20,32.005,24.451,35.997,15.23,10.96
2018-07-24 01:40,32.013,24.468,35.951,15.29,10.90
2018-07-24 02:00,32.019,24.483,35.907,15.27,10.84
2018-07-24 02:20,32.023,24.498,35.848,15.30,10.77
2018-07-24 02:40,32.025,24.502,35.839,15.10,10.76
2018-07-24 03:00,32.028,24.506,35.833,15.30,10.75
2018-07-24 03:20,32.016,24.480,35.909,15.23,10.85
2018-07-24 03:40,32.018,24.484,35.892,15.33,10.83
2018-07-24 04:00,32.020,24.483,35.911,15.26,10.85
2018-07-24 04:20,32.019,24.480,35.919,15.35,10.86
2018-07-24 04:40,32.018,24.477,35.932,15.25,10.87
2018-07-24 05:00,32.019,24.478,35.930,15.36,10.87
2018-07-24 05:20,32.019,24.479,35.923,15.13,10.86
2018-07-24 05:40,32.020,24.485,35.902,15.18,10.84
2018-07-24 06:00,32.026,24.494,35.885,15.43,10.81
2018-07-24 06:20,32.021,24.487,35.894,15.33,10.83
2018-07-24 06:40,32.021,24.482,35.921,15.37,10.86
2018-07-24 07:00,32.017,24.475,35.934,15.18,10.88
2018-07-24 07:20,32.017,24.475,35.937,15.36,10.88
2018-07-24 07:40,32.015,24.470,35.950,15.28,10.90
2018-07-24 08:00,32.017,24.471,35.957,15.34,10.90
2018-07-24 08:20,32.026,24.505,35.829,15.36,10.75
2018-07-24 08:40,32.061,24.539,35.831,15.38,10.71
2018-07-24 09:00,32.024,24.493,35.878,15.26,10.81
2018-07-24 09:20,32.017,24.481,35.905,15.23,10.84
2018-07-24 09:40,31.916,24.281,36.410,15.40,11.53
2018-07-24 10:00,31.969,24.400,36.078,15.44,11.09
2018-07-24 10:20,32.021,24.477,35.946,15.42,10.89
2018-07-24 10:40,32.010,24.452,36.015,15.45,10.98
2018-07-24 11:00,31.957,24.357,36.233,15.41,11.28
2018-07-24 11:20,31.969,24.367,36.242,15.38,11.28
2018-07-24 11:40,31.967,24.359,36.273,15.46,11.32
2018-07-24 12:00,31.970,24.372,36.224,15.45,11.26
2018-07-24 12:20,31.942,24.326,36.318,15.38,11.40
2018-07-24 12:40,31.951,24.338,36.299,15.44,11.37
2018-07-24 13:00,31.958,24.341,36.319,15.37,11.38
2018-07-24 13:20,32.009,24.452,36.011,15.39,10.97
2018-07-24 13:40,32.006,24.453,35.994,15.31,10.96
2018-07-24 14:00,31.999,24.439,36.027,15.33,11.00
2018-07-24 14:20,32.008,24.459,35.972,15.48,10.93
2018-07-24 14:40,32.021,24.490,35.884,15.17,10.81
2018-07-24 15:00,32.029,24.511,35.812,15.35,10.72
2018-07-24 15:20,32.026,24.508,35.811,15.34,10.73
2018-07-24 15:40,32.001,24.402,36.227,15.14,11.23
2018-07-24 16:00,32.010,24.428,36.139,15.15,11.12
2018-07-24 16:20,31.999,24.376,36.340,15.12,11.36
2018-07-24 16:40,32.010,24.414,36.208,15.24,11.19
2018-07-24 17:00,32.008,24.416,36.188,15.37,11.18
2018-07-24 17:20,32.006,24.423,36.143,15.42,11.13
2018-07-24 17:40,32.010,24.433,36.113,15.29,11.09
2018-07-24 18:00,31.998,24.414,36.149,15.24,11.14
2018-07-24 18:20,32.002,24.421,36.134,15.21,11.12
2018-07-24 18:40,32.014,24.447,36.065,15.40,11.03
2018-07-24 19:00,32.018,24.457,36.034,15.50,10.99
2018-07-24 19:20,32.030,24.484,35.956,15.40,10.89
2018-07-24 19:40,32.017,24.477,35.926,15.24,10.87
2018-07-24 20:00,32.021,24.481,35.927,15.29,10.86
2018-07-24 20:20,32.024,24.492,35.884,15.34,10.81
2018-07-24 20:40,32.028,24.506,35.835,15.35,10.75
2018-07-24 21:00,32.024,24.503,35.827,15.34,10.75
2018-07-24 21:20,32.020,24.495,35.850,15.28,10.78
2018-07-24 21:40,32.030,24.510,35.820,15.23,10.73
2018-07-24 22:00,31.896,24.312,36.160,15.41,11.27
2018-07-24 22:20,32.007,24.450,36.013,15.31,10.98
2018-07-24 22:40,32.017,24.456,36.031,15.32,10.99
2018-07-24 23:00,32.060,24.492,36.062,15.33,10.97
2018-07-24 23:20,32.002,24.434,36.072,15.36,11.05
2018-07-24 23:40,31.965,24.377,36.171,15.22,11.21
2018-07-25 00:00,31.935,24.283,36.492,15.36,11.60
2018-07-25 00:20,31.964,24.329,36.409,15.37,11.47
2018-07-25 00:40,31.953,24.318,36.405,15.51,11.48
2018-07-25 01:00,32.022,24.417,36.254,15.17,11.23
2018-07-25 01:20,31.971,24.400,36.085,15.43,11.10
2018-07-25 01:40,32.007,24.448,36.026,15.54,10.99
2018-07-25 02:00,31.961,24.369,36.194,15.33,11.24
2018-07-25 02:20,32.009,24.452,36.012,15.37,10.97
2018-07-25 02:40,32.019,24.485,35.893,15.11,10.83
2018-07-25 03:00,32.034,24.515,35.819,15.42,10.73
2018-07-25 03:20,32.032,24.518,35.791,15.40,10.70
2018-07-25 03:40,32.027,24.507,35.821,15.19,10.74
2018-07-25 04:00,32.021,24.483,35.917,15.21,10.85
2018-07-25 04:20,32.026,24.489,35.908,15.37,10.84
2018-07-25 04:40,32.023,24.490,35.892,15.31,10.82
2018-07-25 05:00,32.027,24.491,35.902,15.34,10.83
2018-07-25 05:20,32.019,24.488,35.881,15.20,10.81
2018-07-25 05:40,32.021,24.489,35.885,15.43,10.82
2018-07-25 06:00,32.020,24.487,35.890,15.37,10.82
2018-07-25 06:20,32.020,24.486,35.896,15.20,10.83
2018-07-25 06:40,32.019,24.484,35.901,15.45,10.84
2018-07-25 07:00,32.016,24.476,35.926,15.28,10.87
2018-07-25 07:20,32.017,24.473,35.945,15.40,10.89
2018-07-25 07:40,32.018,24.477,35.936,15.42,10.88
2018-07-25 08:00,32.018,24.476,35.939,15.26,10.88
2018-07-25 08:20,32.018,24.466,35.988,15.35,10.94
2018-07-25 08:40,32.019,24.478,35.932,15.35,10.87
2018-07-25 09:00,32.022,24.483,35.921,15.24,10.86
2018-07-25 09:20,32.009,24.485,35.846,15.36,10.78
2018-07-25 09:40,32.017,24.498,35.819,15.43,10.75
2018-07-25 10:00,32.026,24.511,35.799,15.34,10.71
2018-07-25 10:20,32.014,24.492,35.835,15.27,10.77
2018-07-25 10:40,31.988,24.422,36.062,15.35,11.06
2018-07-25 11:00,32.015,24.455,36.028,15.42,10.99
2018-07-25 11:20,32.011,24.473,35.919,15.35,10.87
2018-07-25 11:40,32.016,24.475,35.930,15.31,10.87
2018-07-25 12:00,31.953,24.357,36.214,15.28,11.27
2018-07-25 12:20,31.891,24.277,36.310,15.20,11.45
2018-07-25 12:40,31.960,24.347,36.297,15.10,11.35
2018-07-25 13:00,31.969,24.368,36.239,15.36,11.28
2018-07-25 13:20,31.959,24.347,36.291,15.42,11.35
2018-07-25 13:40,32.006,24.452,35.996,15.27,10.96
2018-07-25 14:00,31.999,24.437,36.040,15.44,11.02
2018-07-25 14:20,31.992,24.419,36.099,15.32,11.09
2018-07-25 14:40,31.999,24.429,36.081,15.20,11.06
2018-07-25 15:00,31.998,24.436,36.042,15.24,11.02
2018-07-25 15:20,31.996,24.430,36.059,15.35,11.04
2018-07-25 15:40,32.000,24.434,36.057,15.44,11.04
2018-07-25 16:00,32.009,24.458,35.984,15.08,10.94
2018-07-25 16:20,32.017,24.474,35.945,15.18,10.89
2018-07-25 16:40,32.009,24.448,36.034,15.09,11.00
2018-07-25 17:00,32.000,24.439,36.033,15.23,11.01
2018-07-25 17:20,32.013,24.453,36.030,15.42,10.99
2018-07-25 17:40,32.015,24.455,36.025,15.18,10.98
2018-07-25 18:00,32.016,24.465,35.983,15.34,10.93
2018-07-25 18:20,32.017,24.469,35.967,15.36,10.91
2018-07-25 18:40,32.013,24.460,35.991,15.15,10.95
2018-07-25 19:00,32.011,24.453,36.018,15.33,10.98
2018-07-25 19:20,32.018,24.461,36.013,15.17,10.97
2018-07-25 19:40,32.011,24.451,36.028,15.29,10.99
2018-07-25 20:00,32.013,24.452,36.031,15.41,10.99
2018-07-25 20:20,32.010,24.453,36.017,15.22,10.98
2018-07-25 20:40,32.011,24.453,36.023,15.41,10.98
2018-07-25 21:00,32.011,24.449,36.038,15.13,11.00
2018-07-25 21:20,32.020,24.480,35.928,15.38,10.87
2018-07-25 21:40,32.020,24.487,35.891,15.22,10.82
2018-07-25 22:00,32.022,24.481,35.931,15.19,10.87
2018-07-25 22:20,32.008,24.441,36.065,15.04,11.03
2018-07-25 22:40,31.937,24.289,36.472,15.20,11.58
2018-07-25 23:00,32.009,24.428,36.134,15.26,11.11
2018-07-25 23:20,31.990,24.415,36.108,15.14,11.10
2018-07-25 23:40,32.013,24.447,36.057,15.22,11.02
2018-07-26 00:00,32.017,24.445,36.088,15.28,11.05
2018-07-26 00:20,31.988,24.391,36.220,15.18,11.23
2018-07-26 00:40,31.990,24.413,36.114,15.26,11.11
2018-07-26 01:00,32.034,24.459,36.102,15.43,11.05
2018-07-26 01:20,32.005,24.429,36.106,15.28,11.09
2018-07-26 01:40,31.993,24.407,36.163,15.25,11.16
2018-07-26 02:00,32.002,24.421,36.135,15.27,11.12
2018-07-26 02:20,32.017,24.465,35.986,15.12,10.94
2018-07-26 02:40,32.017,24.472,35.951,15.49,10.90
2018-07-26 03:00,32.005,24.442,36.044,14.98,11.01
2018-07-26 03:20,32.010,24.452,36.017,15.36,10.98
2018-07-26 03:40,32.013,24.463,35.973,15.24,10.93
2018-07-26 04:00,32.012,24.463,35.974,15.23,10.93
2018-07-26 04:20,32.009,24.444,36.053,15.18,11.02
2018-07-26 04:40,32.009,24.448,36.034,15.09,11.00
2018-07-26 05:00,32.009,24.447,36.038,15.24,11.00
2018-07-26 05:20,32.008,24.446,36.043,15.11,11.01
2018-07-26 05:40,32.006,24.440,36.056,15.16,11.03
2018-07-26 06:00,32.005,24.439,36.059,15.14,11.03
2018-07-26 06:20,32.007,24.443,36.048,15.16,11.02
2018-07-26 06:40,32.009,24.452,36.013,15.05,10.98
2018-07-26 07:00,32.010,24.456,35.997,15.26,10.96
2018-07-26 07:20,32.011,24.456,36.004,15.18,10.96
2018-07-26 07:40,32.009,24.451,36.021,15.23,10.98
2018-07-26 08:00,32.010,24.451,36.020,14.94,10.98
2018-07-26 08:20,32.009,24.451,36.018,14.98,10.98
2018-07-26 08:40,32.008,24.449,36.022,15.22,10.99
2018-07-26 09:00,31.997,24.426,36.088,15.24,11.07
2018-07-26 09:20,31.992,24.417,36.104,15.09,11.10
2018-07-26 09:40,31.986,24.408,36.119,14.97,11.12
2018-07-26 10:00,32.015,24.458,36.015,15.07,10.97
2018-07-26 10:20,32.007,24.454,35.992,15.09,10.95
2018-07-26 10:40,31.998,24.430,36.068,15.12,11.05
2018-07-26 11:00,32.006,24.453,35.996,15.09,10.96
2018-07-26 11:20,32.022,24.473,35.973,15.21,10.91
2018-07-26 11:40,32.006,24.441,36.054,15.05,11.02
2018-07-26 12:00,32.000,24.423,36.117,14.54,11.10
2018-07-26 12:20,32.011,24.457,35.998,14.85,10.96
2018-07-26 12:40,32.001,24.440,36.037,15.13,11.01
2018-07-26 13:00,31.998,24.425,36.094,15.02,11.08
2018-07-26 13:20,31.997,24.423,36.100,15.38,11.09
2018-07-26 13:40,31.998,24.415,36.147,14.98,11.14
2018-07-26 14:00,32.010,24.440,36.080,15.09,11.05
2018-07-26 14:20,32.006,24.433,36.093,15.23,11.07
2018-07-26 14:40,32.004,24.430,36.096,14.81,11.07
2018-07-26 15:00,32.012,24.420,36.192,15.08,11.17
2018-07-26 15:20,32.001,24.414,36.166,15.17,11.16
2018-07-26 15:40,32.006,24.437,36.077,15.06,11.05
2018-07-26 16:00,32.007,24.440,36.068,14.99,11.04
2018-07-26 16:20,32.008,24.449,36.026,15.30,10.99
2018-07-26 16:40,32.005,24.442,36.042,15.21,11.01
2018-07-26 17:00,32.006,24.440,36.059,15.23,11.03
2018-07-26 17:20,32.005,24.437,36.071,15.06,11.05
2018-07-26 17:40,31.991,24.404,36.170,15.09,11.17
2018-07-26 18:00,31.984,24.385,36.225,15.11,11.24
2018-07-26 18:20,32.009,24.407,36.238,14.96,11.23
2018-07-26 18:40,31.999,24.402,36.212,15.03,11.21
2018-07-26 19:00,32.003,24.417,36.163,15.03,11.15
2018-07-26 19:20,32.005,24.424,36.134,15.45,11.12
2018-07-26 19:40,32.005,24.428,36.114,15.15,11.10
2018-07-26 20:00,32.004,24.427,36.116,15.04,11.10
2018-07-26 20:20,32.011,24.423,36.171,15.18,11.15
2018-07-26 20:40,31.997,24.406,36.187,15.35,11.19
2018-07-26 21:00,32.000,24.410,36.180,14.99,11.18
2018-07-26 21:20,32.006,24.423,36.143,15.18,11.13
2018-07-26 21:40,32.000,24.419,36.134,15.18,11.12
2018-07-26 22:00,32.004,24.427,36.115,14.62,11.10
2018-07-26 22:20,32.009,24.439,36.076,14.79,11.05
2018-07-26 22:40,32.015,24.460,36.003,15.21,10.96
2018-07-26 23:00,32.009,24.440,36.072,14.85,11.04
2018-07-26 23:20,31.972,24.367,36.259,14.99,11.30
2018-07-26 23:40,32.027,24.438,36.172,15.27,11.13
2018-07-27 00:00,32.002,24.426,36.106,14.96,11.09
2018-07-27 00:20,32.002,24.415,36.166,14.95,11.16
2018-07-27 00:40,32.019,24.437,36.141,14.90,11.11
2018-07-27 01:00,32.010,24.434,36.110,15.31,11.08
2018-07-27 01:20,31.997,24.414,36.143,14.95,11.14
2018-07-27 01:40,32.004,24.402,36.237,15.12,11.24
2018-07-27 02:00,31.999,24.402,36.215,15.16,11.22
2018-07-27 02:20,31.999,24.420,36.125,15.35,11.11